Погода в Хвалынске

Погода в Хвалынске : погода сейчас, прогноз погоды и архив. Всё, что Вы хотите узнать о погоде в Хвалынске!

Поиск расширенной информации на нашем сайте:

Другие новости

Новости СМИ2

Главная страница сайта

Новости сайта

03.07.2017

Напоминаем, что на нашем специализированном сайте Метеоцентр.Азия вы можете получить высокодетализированные автоматические прогнозы погоды по пунктам России, СНГ и мира в авиационном формате (включающие направление и скорость ветра, видимость, явления погоды, количество и форму облачности, нижнюю и верхнюю границу облачности).

Рекомендуем: Подшипники роликовые в кахастане: покупка роликовых подшипников podshipnik-rti.kz.

Погода в Хвалынске - сегодня

Время (UTC), дата Ветер
(°,м/с) 
Видим.   Явления Облачность Т
(°С)
Тd
(°С)
f(%) Тe
(°С)
Pmin
(гПа)
dP
(гПа)
Po
(мм)
O2
(г/м3)
Тmin Tmax R s Состояние
почвы
06 18.06.18 070 (В) 20000 м    ясно 
+21.5 +8.8 44 +22  1011.1  753  280           
09 18.06.18 040 (СВ) 20000 м    3/3 1000 м 
[Cu hum]
+23.9 +6.8 33 +24  1010.3  -0.7  752  278           
12 18.06.18 050 (СВ) 20000 м    3/3 1000 м 
[Cu hum]
+25.4 +6.7 30 +25  1009.6  -0.6  752  276           
15 18.06.18 тихо ()   20000 м    ясно 
+26.4 +6.2 28 +26  1008.7  -0.9  751  275    +26.4       
18 18.06.18 290 (З) 20000 м    ясно 
+22.8 +5.3 32 +23  1009.1  0.3  751  279           
21 18.06.18 240 (ЮЗ) 20000 м    ясно 
+21.1 +6 37 +21  1009.1  0.1  751  280           
00 19.06.18 260 (З) 20000 м    ясно 
+19.9 +7.1 43 +21  1009  0.1  751  281           
06 19.06.18 050 (СВ) 20000 м    ясно 
+25.2 +10.7 40 +27  1009.7  0.3  752  275           
09 19.06.18 080 (В) 20000 м    3/3 1000 м 
[Cu hum]
+27.2 +4.7 24 +27  1009.2  -0.4  751  275           
12 19.06.18 110 (В) 20000 м    3/3 1000 м 
[Cu hum]
+28.5 +5.8 24 +29  1008.1  -1  751  273           
15 19.06.18 180 (Ю) 20000 м    ясно 
+28 +6.7 26 +28  1007.1  -1  750  273    +28.5       
18 19.06.18 250 (З) 20000 м    3/0 средняя 
[Ac cuf]
+24 +6.1 32 +24  1007.4  0.2  750  277           
21 19.06.18 270 (З) 20000 м    3/0 средняя 
[Ac lent]
+23.1 +6.3 34 +23  1007.1  -0.3  750  277           
00 20.06.18 270 (З) 20000 м    4/0 средняя 
[Ac lent]
+22.9 +8.5 40 +23  1006.7  -0.4  749  277           
03 20.06.18 270 (З) 20000 м    4/0 средняя 
[Ac trans]
+24.1 +11.3 45 +27  1006.1  -0.5  749  275  +22        сухая 
06 20.06.18 230 (ЮЗ) 20000 м    10/0 средняя, верхняя 
[Ac As|Ci sp]
+26.6 +12.5 42 +31  1005.6  -0.4  749  273           
09 20.06.18 250 (З) 3{10}  20000 м    10/4 1000 м верхняя 
[Cu hum|Ci fib]
+29 +13.1 38 +35  1003.7  -1.9  747  270           
15 20.06.18 270 (З) 20000 м  {ливн. осадки}  8/0 средняя 
[Ac As]
+24.9 +15.1 54 +34  1001.9  -0.5  746  272    +30.2     
18 20.06.18 310 (СЗ) 20000 м  {ливн. осадки}  3/1 1000 м верхняя 
[Sc|Ci fib]
+22.1 +13.4 58 +28  1003.6  1.6  747  276           
21 20.06.18 300 (СЗ) 20000 м    ясно 
+18.1 +8.2 52 +19  1005.4  1.7  748  281           
00 21.06.18 270 (З) 20000 м    ясно 
+17.4 +5.1 44 +18  1006  0.6  749  283           
06 21.06.18 280 (З) 20000 м    ясно 
+22.4 +8.7 42 +22  1007.2  0.3  750  278           
09 21.06.18 290 (З) 4{11}  20000 м    3/3 1000 м 
[Cu hum]
+24.9 +4.6 27 +25  1005.9  -1.2  749  276           
15 21.06.18 300 (СЗ) 4{10}  20000 м    4/4 1000 м 
[Sc diur, vesp]
+24.6 +6.1 30 +25  1004.8  -0.4  748  276    +25.8       
18 21.06.18 300 (СЗ) 20000 м    4/4 1000 м 
[Sc diur, vesp]
+20.8 +7.6 42 +21  1006.2  1.2  749  279           
Время (UTC), дата Ветер
(°,м/с) 
Видим.   Явления Облачность Т
(°С)
Тd
(°С)
f(%) Тe
(°С)
Pmin
(гПа)
dP
(гПа)
Po
(мм)
O2
(г/м3)
Тmin Tmax R s Состояние
почвы

Для получения пояснительной информации подведите курсор к названию столбца.

ПОГОДА в Хвалынске - архив

Всё, что Вы хотите узнать о погоде в Хвалынске - удобно и подробно!

Выберите нужную дату (начиная с 1 января 2015* года) и нажмите кнопку "Найти".
Будут отображены архивные сводки погоды по пункту Хвалынск, начиная с указанной даты.


Отображать данные в формате CSV (для использования в таблицах Excel)


Внимание! Наш архив погоды предназначен исключительно для личного некоммерческого использования в познавательных целях. Если Вам необходимы официальные справки о состоянии погоды (для производственных, юридических, коммерческих и т.п. целей), обращайтесь в органы Росгидромета.

*Примечание: данная дата относится к архиву по метеостанциям СССР (Россия, СНГ, Балтия).
Архив по метеостанциям Зарубежной Европы и Азии (кроме Китая) хранится 10 дней, по другим регионам земного шара (Китай, Африка, Америка, Австралия, Океания) - 1 день.

Хвалынск - район местоположения метеостанции


Название, широта, долгота, высота метеостанции:
Хвалынск 52.5°ш. 48.1°д. 88 м над ур. моря [Российская Федерация]

Дополнительная информация

В oтличие oт бoльшинства пoгoдных сайтoв мы публикуем пoдрoбную метеoинфoрмацию в детальнoм прoфессиoнальнoм фoрмате.

Характеристики температуры и влажнoсти вoздуха измеряются на высoте 2 м в тени вдали oт зданий и деревьев.
Скoрoсть ветра измеряется на высoте 10 м (на урoвне рoста челoвека скoрoсть ветра ниже в 1.5-2 раза). Если метеoстанция нахoдится в гoрoде или в лесу, тo скoрoсть ветра занижена на 2-4 м/с пo сравнению с oткрытым местoм. Скoрoсть ветра над акватoриями крупных рек и oзёр, а также на вершинах хoлмoв на 2-5 м/с выше, чем в oбычных услoвиях.
Атмoсфернoе давление в разных тoчках местнoсти мoжет значительнo oтличаться oт давления на метеoстанции, в зависимoсти oт услoвий рельефа (при пoдъёме на 10 м давление пoнижается примернo на 1 мм рт.ст.).